Location: Street
(51.1247°N, 2.7429°W)
Time: 06:47:52
(UTC+00:00)

SR - Pass Details

Date: 02 December 2020
Orbit: 576 x 880 km, 66.7° (Epoch: 16 January)

Event Time Altitude Azimuth Distance (km) Brightness Sun altitude
Rises 20:29:06 0° 276° (W) 2,913 ? -40.1°
Reaches altitude 10° 20:31:59 10° 296° (WNW) 2,059 ? -40.5°
Enters shadow 20:32:15 11° 299° (WNW) 1,996 ? -40.6°
Maximum altitude 20:35:10 18° 339° (NNW) 1,659 - -41.0°
Drops below altitude 10° 20:38:31 10° 22° (NNE) 2,192 - -41.5°
Sets 20:41:44 0° 41° (NE) 3,183 - -42.0°
